Home > Weather > Olympia > Past weeks

Flag for U.S.A. Weather for the Past 2 Weeks in Olympia, Washington, U.S.A.

Now
31 °F

Ice fog.


Feels Like: 31 °F
Forecast: 38 / 59 °F
Wind: No wind

Location: Olympia Airport

Current Time: Feb 9, 2016 at 6:38:07 AM

Latest Report: Feb 9, 2016 at 4:54 AM


Visibility: 0 mi

Pressure: 30.22 "Hg

Humidity: 96%

Dew point: 30 °F

Location of OlympiaLocation

Historic Weather in Olympia — Graph

°F

Olympia Temperature Yesterday

Maximum temperature yesterday: 57 °F (at 2:54 PM)
Minimum temperature yesterday: 31 °F (at 5:54 AM)
Average temperature yesterday: 42 °F

High & Low Weather Summary for the Past Weeks

 TemperatureHumidityPressure
High58 °F (Jan 27, 1:54 PM)100% (Feb 2, 2:54 AM)30.55 "Hg (Feb 2, 2:54 AM)
Low28 °F (Feb 2, 6:54 AM)49% (Feb 7, 2:54 PM)29.62 "Hg (Jan 29, 7:54 AM)
Average43 °F88%30.18 "Hg
* Reported Jan 25 4:54 AM — Feb 9 4:54 AM, Olympia, Weather by CustomWeather, © 2016

Note: Actual official high and low records may vary slightly from our data, if they occured in-between our weather recording intervals... More about our weather records

Advertising

Olympia Weather History for the Previous 24 Hours

 ConditionsComfort  
Time TempWeatherWind HumidityBarometerVisibility
4:54 AM
Tue, Feb 9
31 °FIce fog.No wind96%30.22 "Hg1 mi
4:01 AM31 °FIce fog.No wind96%30.22 "Hg1 mi
3:02 AM33 °FFog.No wind96%30.23 "Hg5 mi
2:03 AM34 °FFog.No wind92%30.24 "Hg0 mi
1:54 AM33 °FFog.No wind96%30.24 "Hg1 mi
12:54 AM35 °FFog.No wind96%30.25 "Hg0 mi
12:03 AM35 °FFog.No wind88%30.26 "Hg2 mi
11:03 PM
Mon, Feb 8
36 °FFog.3 mph97%30.27 "Hg1 mi
10:54 PM38 °FClear.No wind97%30.27 "Hg7 mi
10:00 PM38 °FFog.No wind97%30.28 "Hg1 mi
8:54 PM42 °FClear.No wind89%30.30 "Hg10 mi
7:54 PM47 °FClear.3 mph86%30.31 "Hg10 mi
6:54 PM48 °FClear.5 mph80%30.32 "Hg10 mi
5:54 PM50 °FClear.6 mph74%30.32 "Hg10 mi
4:54 PM55 °FSunny.8 mph64%30.33 "Hg10 mi
3:54 PM57 °FSunny.12 mph58%30.34 "Hg10 mi
2:54 PM57 °FSunny.10 mph58%30.36 "Hg10 mi
1:54 PM55 °FSunny.8 mph67%30.38 "Hg10 mi
12:54 PM52 °FSunny.7 mph69%30.41 "Hg10 mi
11:54 AM48 °FSunny.5 mph80%30.45 "Hg10 mi
10:54 AM42 °FFog.5 mph96%30.47 "Hg3 mi
9:54 AM42 °FFog.5 mph96%30.47 "Hg1 mi
8:54 AM35 °FFog.No wind96%30.47 "Hg0 mi
7:54 AM31 °FIce fog.No wind96%30.47 "Hg4 mi
6:54 AM32 °FIce fog.No wind92%30.47 "Hg4 mi
Weather by CustomWeather, © 2016

See weather overviewHow to use our weather pages